Regional Weather Roundup
Issued by NWS

Home | Current Version | Previous Version | Text Only | Print | Product List | Glossary On
Versions: 1 2 3 4 5 6 7 8 9 10 11 12 13 14 15 16 17 18 19 20 21 22 23 24 25 26 27 28 29 30 31 32 33 34 35 36 37 38 39 40 41 42 43 44 45 46 47 48 49 50
000
ASUS43 KMKX 251510
RWRWI

WISCONSIN REGIONAL WEATHER ROUNDUP
NATIONAL WEATHER SERVICE MILWAUKEE/SULLIVAN WI
1000 AM CDT WED APR 25 2018

NOTE: "FAIR" INDICATES FEW OR NO CLOUDS BELOW 12,000 FEET WITH NO
SIGNIFICANT WEATHER AND/OR OBSTRUCTIONS TO VISIBILITY.

WIZ001-002-006>008-014>016-023>028-251600-
NORTHWEST WISCONSIN

CITY           SKY/WX    TMP DP  RH WIND       PRES   REMARKS
SUPERIOR ARPT  FAIR      40  26  56 NW3       30.24F
ASHLAND        FAIR      41  25  53 VRB3      30.23F
HAYWARD        FAIR      41  26  55 VRB3      30.21F
SIREN          FAIR      41  25  51 CALM      30.23F
CUMBERLAND     FAIR      37  27  65 CALM      30.22F
RICE LAKE      FAIR      40  27  58 N3        30.23F
CHETEK         FAIR      42  28  57 CALM      30.22F
LADYSMITH      FAIR      41  28  59 NE6       30.21F
EAU CLAIRE     FAIR      43  27  53 VRB6      30.22S
MENOMONIE      FAIR      43  27  53 E5        30.23S
NEW RICHMOND   FAIR      43  25  49 NE5       30.24S
OSCEOLA        FAIR      44  25  48 CALM      30.26F
$$

WIZ003>005-009-010-017-018-251600-
NORTH CENTRAL WISCONSIN

CITY           SKY/WX    TMP DP  RH WIND       PRES   REMARKS
MANITOWISH WTR FAIR      35  26  69 N3        30.18F
ARBOR VITAE    FAIR      39  30  70 N10       30.17F WCI  32
WOODRUFF       FAIR      39  30  70 N10       30.17F WCI  32
RHINELANDER    FAIR      37  28  70 N9        30.18F WCI  30
EAGLE RIVER    FAIR      37  26  65 NW8       30.17S WCI  30
LAND O LAKES   FAIR      36  26  65 NE8       30.19S WCI  30
PHILLIPS       FAIR      38  27  65 NE8       30.19F WCI  32
TOMAHAWK       FAIR      38  27  65 N8        30.18F WCI  32
MEDFORD        FAIR      38  28  66 N8        30.18S WCI  32
MERRILL        FAIR      40  29  65 N8        30.19F WCI  35
$$

WIZ029-030-035-036-043>047-251600-
CENTRAL WISCONSIN

CITY           SKY/WX    TMP DP  RH WIND       PRES   REMARKS
WAUSAU         FAIR      40  27  59 NE8       30.16F WCI  34
MOSINEE        SUNNY     39  30  70 NE13      30.19F WCI  32
MARSHFIELD     FAIR      43  30  60 VRB5      30.17F
STEVENS POINT  FAIR      41  28  60 NE3G16    30.18S
WAUPACA        FAIR      45  29  53 N7        30.18F
WAUTOMA        FAIR      45  28  51 N6        30.18S
WISC RAPIDS    FAIR      45  28  51 VRB7      30.19F
CAMP DOUGLAS   SUNNY     46  30  53 NW5       30.18S
$$

WIZ011>013-019>022-031-037>040-048>050-251600-
NORTHEAST WISCONSIN

CITY           SKY/WX    TMP DP  RH WIND       PRES   REMARKS
ANTIGO         FAIR      37  29  73 N10       30.17F WCI  29
SHAWANO        FAIR      44  30  59 NE6       30.17F
OCONTO         FAIR      42  28  57 N12G18    30.16F
STURGEON BAY   FAIR      39  29  67 N17G25    30.16F WCI  30
GREEN BAY      FAIR      44  30  57 N14       30.16F
MANITOWOC      FAIR      43  31  62 N14       30.14F
APPLETON       MOSUNNY   43  27  52 N14       30.15F
CLINTONVILLE   FAIR      43  27  53 N9        30.17F
OSHKOSH        FAIR      44  32  62 NE9       30.16F
$$

WIZ032>034-041-042-053>061-251600-
SOUTHWEST WISCONSIN

CITY           SKY/WX    TMP DP  RH WIND       PRES   REMARKS
LA CROSSE      FAIR      48  35  60 NW7       30.21S
SPARTA         FAIR      46  35  63 NW3       30.20S
VIROQUA        FAIR      46  38  73 N5        30.19R
BOSCOBEL       FAIR      51  35  54 VRB3      30.19F
PRAIRIE DU CHI FAIR      51  35  54 NW5       30.18F
PLATTEVILLE    FAIR      51  37  59 N10G17    30.17S
$$

WIZ056-057-062-063-064-067-068-251600-
SOUTH CENTRAL WISCONSIN

CITY           SKY/WX    TMP DP  RH WIND       PRES   REMARKS
REEDSBURG      FAIR      46  33  59 N6        30.17S
BARABOO/DELLS  FAIR      46  31  55 NE7       30.17S
LONE ROCK      FAIR      51  35  54 NE5       30.18S
MINERAL POINT  FAIR      52  34  50 N8        30.16F
MADISON        FAIR      49  34  56 N10       30.16R
MIDDLETON      FAIR      50  35  56 N8        30.17S
WATERTOWN      FAIR      47  36  64 N9        30.14S
MONROE         FAIR      50  34  53 N13       30.14F
JANESVILLE     SUNNY     52  34  50 N12       30.15R
$$

WIZ051-052-058>065-066-070>072-251600-
SOUTHEAST WISCONSIN

CITY           SKY/WX    TMP DP  RH WIND       PRES   REMARKS
MILWAUKEE      FAIR      47  30  51 N20G30    30.13S
WAUKESHA       SUNNY     46  30  53 N9G16     30.13S
MILWAUKEE/TIMM SUNNY     48  27  43 N9G17     30.13S
RACINE         FAIR      46  31  55 N16G33    30.14S
BURLINGTON     FAIR      50  32  50 N5G16     30.13R
KENOSHA        FAIR      49  29  46 NE16G24   30.13R
FOND DU LAC    FAIR      43  31  62 N13       30.16F
SHEBOYGAN      FAIR      46  33  60 N15       30.13F
WEST BEND      FAIR      46  30  53 N10       30.13F
JUNEAU         FAIR      45  32  61 N12       30.16R
$$

LSZ147-162-251600-
LAKE SUPERIOR

STATION/POSITION TIME  TEMP    WIND        PRES    WAVE
                       AIR SEA DIR/SP/G            HT/PER
                 (UTC) (F)     (DEG/KT/KT) (MB)    (FT/S)
DEVILS ISLAND    1500   35      40/  2/  2 1024.7F
SAXON HARBOR     1430   36      CALM  /  1 1024.0S
$$

LMZ867-665-643>646-251600-
LAKE MICHIGAN

STATION/POSITION TIME  TEMP    WIND        PRES    WAVE
                       AIR SEA DIR/SP/G            HT/PER
                 (UTC) (F)     (DEG/KT/KT) (MB)    (FT/S)
NORTHPORT PIER   1440   36                 1021.0S
KEWAUNEE LAKESHO 1448   42     360/  8/ 15 1020.1F
SHEBOYGAN LAKESH 1500   40      10/ 13/ 13 1020.9F
PORT WASHINGTON  1430   48      20/  8/ 15 1021.3S
MILWAUKEE LAKESH 1450   43     360/ 15/ 18   N/A
KENOSHA   LAKESH 1500   42                 1020.3
$$

TC  - TEMPERATURE IN CELSIUS
VSB - VISIBILITY IN STATUTE MILES
WCI - WIND CHILL INDEX
HX  - HEAT INDEX





USA.gov is the U.S. government's official web portal to all federal, state and local government web resources and services.